Regional Weather Roundup
Issued by NWS

Home | Current Version | Previous Version | Graphics & Text | Print | Product List | Glossary On
Versions: 1 2 3 4 5 6 7 8 9 10 11 12 13 14 15 16 17 18 19 20 21 22 23 24 25 26 27
000
ASUS45 KSLC 222310
RWRUT

UTAH REGIONAL WEATHER ROUNDUP
NATIONAL WEATHER SERVICE SALT LAKE CITY UT
500 PM MDT TUE APR 22 2014

UTZ001>011-023>025-230000-

NORTHERN UTAH

CITY           SKY/WX    TMP DP  RH WIND       PRES   REMARKS
DUGWAY         PTSUNNY   76  16  10 SW21G31   29.53F BLWGDUST
HILL AFB       CLOUDY    72  27  18 S36G53    29.47F BLWGDUST
LOGAN          CLOUDY    69  32  25 S44G60    29.47R
OGDEN          LGT RAIN  73  25  16 SW25G56   29.45F
PROVO AIRPORT  CLOUDY    73  36  25 S18G26    29.56F
SALT LAKE CITY CLOUDY    76  27  16 S38G54    29.47F HAZE
VERNAL         CLOUDY    68  28  22 S18G25    29.67F
WENDOVER       PTSUNNY   54  27  35 NW47G54   29.59R
HEBER CITY     CLOUDY    64  28  25 S22G28    29.59F
WEST JORDAN    CLOUDY    72  36  26 S35G52    29.52F

$$

UTZ012>022-026-027-230000-

SOUTHERN UTAH

CITY           SKY/WX    TMP DP  RH WIND       PRES   REMARKS
BRYCE CANYON   CLOUDY    61  23  23 S30G41    29.84F
CEDAR CITY     PTSUNNY   70  20  15 SW39G55   29.67F
MILFORD        PTSUNNY   75  19  12 SW47G64   29.62F HAZE
MOAB/CYNLANDS  SUNNY     78  24  13 SW12G25   29.65F
PRICE          CLOUDY    68  23  18 S26G35    29.69F
ST GEORGE      CLOUDY    82  27  13 SW35G43   29.62F
KANAB            N/A     73  23  15 S22G32    29.76F

$$

REGIONAL REPORTS     COLORADO/ARIZONA

CITY           SKY/WX    TMP DP  RH WIND       PRES   REMARKS
CRAIG, CO      CLOUDY    67  25  20 SW21G31   29.78F
GRAND JUNCTION CLOUDY    73  26  17 S6        29.71F
RIFLE          CLOUDY    70  24  17 W3        29.76F
MONTROSE       CLOUDY    71  30  21 S16       29.84S
CORTEZ         SUNNY     74  25  16 SW23G32   29.86F
PAGE, AZ       CLOUDY    79  24  13 SW8G22    29.69F
GRAND CANYON   CLOUDY    66  24  20 SW25G38   29.89F
KINGMAN        CLOUDY    80  13   8 SW30G43   29.76F
FLAGSTAFF      PTSUNNY   65  28  24 SW29G39   29.95F

$$

REGIONAL REPORTS    NEVADA/IDAHO/WYOMING

CITY           SKY/WX    TMP DP  RH WIND       PRES   REMARKS
LAS VEGAS, NV  MOSUNNY   80  -2   4 SW28G46   29.61F
ELY            CLOUDY    40  32  73 NW13      29.85R WCI  32
ELKO           CLOUDY    38  33  82 SW6       29.81R WCI  33
POCATELLO, ID  RAIN      42  39  89 SW28G37   29.71R FOG
BURLEY         LGT RAIN  41  37  86 SW20      29.73S
EVANSTON, WY   CLOUDY    64  24  21 S35G46    29.65F
ROCK SPRINGS   CLOUDY    64  20  18 S26G36    29.67F

$$



USA.gov is the U.S. government's official web portal to all federal, state and local government web resources and services.